Location: Unspecified
(0.0000°N, 0.0000°E)
Time: 12:24:30
(UTC+00:00)

Explorer 11/Cluster Stage 4 - Visible Passes

Search period start: 17 February 2019 00:00
Search period end: 27 February 2019 00:00
Orbit: 467 x 1260 km, 28.8° (Epoch: 16 February)

Date Brightness Start Highest point End Pass type
(mag) Time Alt. Az. Time Alt. Az. Time Alt. Az.
17 Feb 8.5 03:39:45 34° NNE 03:39:45 34° NNE 03:46:36 10° E visible
17 Feb 7.5 05:21:55 14° WNW 05:29:10 83° SSW 05:36:36 10° ESE visible
18 Feb 8.5 03:30:05 38° NE 03:30:05 38° NE 03:36:18 10° E visible
18 Feb 7.5 05:12:15 19° WNW 05:18:27 72° SSW 05:26:01 10° SE visible
19 Feb 8.5 03:20:25 38° ENE 03:20:25 38° ENE 03:25:55 10° E visible
19 Feb 7.6 05:02:35 25° WNW 05:07:43 62° SSW 05:15:23 10° SE visible
20 Feb 8.7 03:10:45 35° E 03:10:45 35° E 03:15:25 10° ESE visible
20 Feb 7.8 04:52:55 30° W 04:56:59 54° SSW 05:04:40 10° SE visible
21 Feb 9.0 03:01:03 30° E 03:01:03 30° E 03:04:53 10° ESE visible
21 Feb 8.0 04:43:13 33° WSW 04:46:17 46° SSW 04:53:54 10° SE visible
22 Feb 9.2 02:51:19 24° ESE 02:51:19 24° ESE 02:54:16 10° ESE visible
22 Feb 8.1 04:33:29 35° WSW 04:35:35 40° SSW 04:43:05 10° SE visible
23 Feb 9.5 02:41:34 19° ESE 02:41:34 19° ESE 02:43:34 10° ESE visible
23 Feb 8.3 04:23:43 33° SW 04:24:54 34° SSW 04:32:12 10° SE visible
24 Feb 9.8 02:31:46 14° ESE 02:31:46 14° ESE 02:32:49 10° ESE visible
24 Feb 8.5 04:13:55 30° SSW 04:14:16 30° SSW 04:21:15 10° SSE visible
25 Feb 10.0 02:21:55 10° SE 02:21:55 10° SE 02:22:01 10° SE visible
25 Feb 8.7 04:04:04 26° SSW 04:04:04 26° SSW 04:10:14 10° SSE visible
26 Feb 9.0 03:54:12 21° SSW 03:54:12 21° SSW 03:59:09 10° SSE visible
